Location: Albany
(35.0170°S, 117.8920°E)
Time: 16:52:01
(UTC+08:00)

Altair - Visible Passes

Search period start: 24 January 2021 00:00
Search period end: 03 February 2021 00:00
Orbit: 1501 x 1682 km, 47.2° (Epoch: 23 January)

Date Brightness Start Highest point End Pass type
(mag) Time Alt. Az. Time Alt. Az. Time Alt. Az.
24 Jan 8.0 00:40:38 10° WSW 00:46:50 42° W 00:46:50 42° W visible
24 Jan 8.6 20:04:50 10° WSW 20:13:19 38° S 20:21:49 10° ESE visible
24 Jan 7.8 22:10:34 10° SW 22:19:39 57° SSE 22:24:21 31° E visible
25 Jan 7.8 00:15:25 10° WSW 00:22:18 48° W 00:22:18 48° W visible
25 Jan 8.6 19:39:30 10° WSW 19:48:00 38° S 19:56:30 10° ESE visible
25 Jan 7.9 21:45:23 10° SW 21:54:24 54° SSE 21:59:54 26° E visible
25 Jan 7.6 23:50:13 10° WSW 23:57:52 57° W 23:57:52 57° W visible
26 Jan 8.0 21:20:12 10° SW 21:29:09 51° SSE 21:35:33 21° E visible
26 Jan 7.4 23:25:01 10° WSW 23:33:31 66° WNW 23:33:31 66° WNW visible
27 Jan 8.1 20:55:00 10° SW 21:03:53 49° SSE 21:11:15 16° E visible
27 Jan 7.3 22:59:50 10° WSW 23:09:02 73° NW 23:09:13 73° NNW visible
28 Jan 9.3 01:06:44 10° W 01:07:12 11° W 01:07:12 11° W visible
28 Jan 8.1 20:29:47 10° SW 20:38:37 47° SSE 20:47:00 12° E visible
28 Jan 7.2 22:34:39 10° WSW 22:43:54 79° NW 22:45:00 70° NNE visible
29 Jan 9.2 00:41:08 10° W 00:42:58 15° W 00:42:58 15° W visible
29 Jan 8.2 20:04:34 10° SW 20:13:21 45° SSE 20:22:09 10° E visible
29 Jan 7.3 22:09:29 10° SW 22:18:45 84° NW 22:20:49 60° NE visible
30 Jan 9.0 00:15:38 10° WSW 00:18:48 19° W 00:18:48 19° W visible
30 Jan 8.3 19:39:20 10° SW 19:48:04 44° SSE 19:56:47 10° E visible
30 Jan 7.3 21:44:18 10° SW 21:53:36 90° NNW 21:56:41 49° NE visible
30 Jan 8.8 23:50:11 10° WSW 23:54:41 23° WNW 23:54:41 23° WNW visible
31 Jan 7.4 21:19:08 10° SW 21:28:25 85° SE 21:32:36 39° ENE visible
31 Jan 8.5 23:24:48 10° WSW 23:30:36 28° WNW 23:30:36 28° WNW visible
01 Feb 7.4 20:53:58 10° SW 21:03:15 80° SSE 21:08:34 30° ENE visible
01 Feb 8.3 22:59:26 10° WSW 23:06:35 32° WNW 23:06:35 32° WNW visible
02 Feb 7.5 20:28:48 10° SW 20:38:04 75° SSE 20:44:37 22° ENE visible
02 Feb 8.1 22:34:06 10° WSW 22:42:14 36° NW 22:42:37 36° NW visible
